Regional Weather Roundup
Issued by NWS

Home | Current Version | Previous Version | Graphics & Text | Print | Product List | Glossary On
Versions: 1 2 3 4 5 6 7 8 9 10 11 12 13 14 15 16 17 18 19 20 21 22 23 24 25 26 27 28 29 30 31 32 33 34 35 36 37 38 39 40 41 42 43 44 45 46 47 48 49 50
000
ASUS43 KDMX 261206
RWRIA

WEATHER ROUNDUP FOR IOWA
NATIONAL WEATHER SERVICE DES MOINES IA
600 AM CST SUN FEB 26 2017

NOTE: "FAIR" INDICATES FEW OR NO CLOUDS BELOW 12,000 FEET WITH NO
SIGNIFICANT WEATHER AND/OR OBSTRUCTIONS TO VISIBILITY.

* - THESE STATIONS ARE NOT NWS STATIONS...THUS NOT UNDER NWS
QUALITY CONTROL.  THEY ALSO DO NOT REPORT WEATHER SUCH
AS PRECIPITATION OR FOG.

IAZ001>003-012>014-020>022-031>034-043>046-261300-
   NORTHWEST IOWA

CITY           SKY/WX    TMP DP  RH WIND       PRES   REMARKS
CARROLL *      CLEAR     25  23  93 SW14      29.83R WCI  13
CHEROKEE *     CLEAR     19  18  93 CALM      29.81R
DENISON *      CLEAR     21  19  93 SW6       29.82R WCI  14
LE MARS *      CLEAR     18  16  93 S5        29.82R WCI  11
SHELDON *      CLEAR     18  19 100 SW9       29.77R WCI   6
SIOUX CITY     CLEAR     15  11  83 N3        29.83R
6HR MIN TEMP:  15; 6HR MAX TEMP:  22;

SPENCER        CLEAR     14  11  87 SW7       29.78R WCI   4
6HR MIN TEMP:  13; 6HR MAX TEMP:  20;

STORM LAKE *   CLEAR     21  18  86 W13       29.79R WCI   9
$$

IAZ055>058-069>071-079>083-090>094-261300-
   SOUTHWEST IOWA

CITY           SKY/WX    TMP DP  RH WIND       PRES   REMARKS
ATLANTIC *       N/A     23  19  86 SW7       29.88R WCI  15
AUDUBON *      CLEAR     27  21  80 SW9       29.85R WCI  17
CLARINDA *     CLOUDY    32  23  69 SW8       29.94R WCI  25
COUNCIL BLFS * CLEAR     28  23  80 SW8       29.87R WCI  20
CRESTON *      PTCLDY    30  21  69 SW10      29.90R WCI  21
HARLAN  *      CLEAR     21  21 100 S5        29.90R WCI  15
LAMONI         MOCLDY    31  17  56 SW16      29.92R WCI  20
6HR MIN TEMP:  28; 6HR MAX TEMP:  31;

RED OAK *      CLEAR     28  23  80 SW9       29.90R WCI  20
SHENANDOAH *   PTCLDY    30  23  74 SW9       29.92S WCI  22
$$

IAZ047>049-059>061-072>074-084-261300-
   CENTRAL IOWA

CITY           SKY/WX    TMP DP  RH WIND       PRES   REMARKS
AMES           CLEAR     27  22  81 SW15      29.85R WCI  15
6HR MIN TEMP:  27; 6HR MAX TEMP:  30;

ANKENY *       CLEAR     30  21  69 SW13      29.88S WCI  20
BOONE *        CLEAR     28  21  74 SW10G17   29.83R WCI  19
CHARITON *     CLOUDY    30  18  59 SW14G21   29.90R WCI  20
DES MOINES     PTCLDY    29  20  69 SW12      29.88R WCI  19
6HR MIN TEMP:  29; 6HR MAX TEMP:  33;

GRINNELL*      CLEAR     27  19  71 SW10      29.88S WCI  18
KNOXVILLE *    CLOUDY    32  18  55 SW14G22   29.87R WCI  22
MARSHALLTOWN   CLEAR     27  19  72 SW14      29.83S WCI  16
6HR MIN TEMP:  27; 6HR MAX TEMP:  30;

NEWTON *       CLEAR     27  19  74 SW9       29.87S WCI  17
PELLA *        CLEAR     32  18  57 W10G17    29.91R WCI  24
PERRY *          N/A     25  21  85 SW13      29.86R WCI  14
$$

IAZ004>006-015-016-023>025-035-036-261300-
   NORTH CENTRAL IOWA

CITY           SKY/WX    TMP DP  RH WIND       PRES   REMARKS
ALGONA *       FLURRIES  18  16  93 SW12      29.78R WCI   5
CLARION *      CLEAR     19  18  93 SW9       29.81R WCI   9
ESTHERVILLE    CLEAR     19  16  88 W12       29.75S WCI   7
6HR MIN TEMP:  11; 6HR MAX TEMP:  20;

FORT DODGE *   CLEAR     21  14  73 SW7       29.81S WCI  13
MASON CITY     CLEAR     23  16  74 SW13      29.79S WCI  11
6HR MIN TEMP:  19; 6HR MAX TEMP:  23;

FOREST CITY *    N/A     18  14  86 SW3       29.78R
WEBSTER CITY * CLEAR     23  18  80 SW10      29.80R WCI  12
IOWA FALLS *     N/A     26  20  79 SW10      29.82R WCI  16
$$

IAZ007>011-017>019-026>030-037>042-050>054-066-261300-
   NORTHEAST IOWA

CITY           SKY/WX    TMP DP  RH WIND       PRES   REMARKS
CEDAR RAPIDS   CLEAR     28  19  69 S15       29.87S WCI  16
6HR MIN TEMP:  24; 6HR MAX TEMP:  30;

CHARLES CITY * CLOUDY    27  21  80 S12       29.80S WCI  16
CLINTON *      CLOUDY    29  21  72 S17       29.93F WCI  17
DECORAH *      CLOUDY    28  19  69 S10G17    29.78F WCI  19
DUBUQUE        CLOUDY    28  19  69 S16       29.86F WCI  16
6HR MIN TEMP:  23; 6HR MAX TEMP:  28;

MONTICELLO *   CLOUDY    28  19  69 S13       29.87S WCI  18
OELWEIN *      PTCLDY    27  21  80 SW12      29.83S WCI  16
WATERLOO       CLEAR     27  18  69 SW13      29.82F WCI  16
6HR MIN TEMP:  26; 6HR MAX TEMP:  30;

$$

IAZ064-065-067-068-078-261300-
   EAST CENTRAL IOWA

CITY           SKY/WX    TMP DP  RH WIND       PRES   REMARKS
DAVENPORT      CLOUDY    30  17  58 S18       29.93F WCI  18
6HR MIN TEMP:  25; 6HR MAX TEMP:  30;

IOWA CITY      PTCLDY    32  18  56 S13       29.92F WCI  22
6HR MIN TEMP:  26; 6HR MAX TEMP:  32;

MUSCATINE *    CLOUDY    34  18  51 S20G28    29.93F WCI  22
QUAD CITIES    CLOUDY    32  16  51 S14G24    29.94F WCI  22
6HR MIN TEMP:  26; 6HR MAX TEMP:  32;

$$

IAZ062-063-075>077-085>089-095>099-261300-
   SOUTHEAST IOWA

CITY           SKY/WX    TMP DP  RH WIND       PRES   REMARKS
BURLINGTON     CLOUDY    31  18  58 S15       29.98F WCI  20
6HR MIN TEMP:  23; 6HR MAX TEMP:  31;

FAIRFIELD *    CLOUDY    32  14  47 S18G29    29.92S WCI  20
KEOKUK *       CLOUDY    32  16  51 S13G20    29.99S WCI  22
CENTERVILLE *    N/A     30  18  59 S17       29.94S WCI  18
OTTUMWA        CLEAR     33  16  49 S16       29.90S WCI  23
6HR MIN TEMP:  29; 6HR MAX TEMP:  33;

WASHINGTON *   PTCLDY    30  19  64 S18G25    29.92F WCI  18
$$

ABBREVIATIONS USED IN REMARKS
   TC - TEMPERATURES IN CELSIUS
  WCI - WIND CHILL INDEX
   HX - HEAT INDEX
  VSB - VISIBILITY
$$





USA.gov is the U.S. government's official web portal to all federal, state and local government web resources and services.